FW4433 Weather Reports


time (UTC)temp
C
wind
direction
speed
KPH
gust
KPH
rain 1hr
cm
rain 24hr
cm
rain mn
cm
humidity
%
barometer
mb
20260506124529 12 9 3.2 14.5 0.00 0.00 0.00 61 1012.4
20260506124028 12 27 3.2 9.7 0.00 0.00 0.00 61 1012.3
20260506123528 12 356 0.0 8.0 0.00 0.00 0.00 61 1012.2
20260506123026 12 338 1.6 6.4 0.00 0.00 0.00 61 1012.3
20260506122527 12 356 1.6 8.0 0.00 0.00 0.00 61 1012.2
20260506122023 12 332 1.6 8.0 0.00 0.00 0.00 60 1012.1
20260506121524 12 331 1.6 9.7 0.00 0.00 0.00 60 1012.0
20260506121122 12 6 3.2 9.7 0.00 0.00 0.00 60 1011.9
20260506120522 12 354 3.2 8.0 0.00 0.00 0.00 60 1012.1
20260506120121 12 333 1.6 8.0 0.00 0.00 0.00 60 1012.1
20260506115519 12 278 1.6 11.3 0.00 0.00 0.00 60 1011.9
20260506115018 12 345 1.6 8.0 0.00 0.00 0.00 59 1011.7
20260506114518 12 6 1.6 8.0 0.00 0.00 0.00 59 1011.7
20260506114015 12 340 1.6 16.1 0.00 0.00 0.00 59 1011.5
20260506113515 12 338 3.2 16.1 0.00 0.00 0.00 59 1011.2
20260506113016 12 356 1.6 11.3 0.00 0.00 0.00 58 1011.1
20260506112513 12 321 1.6 11.3 0.00 0.00 0.00 59 1011.2
20260506112011 12 337 3.2 9.7 0.00 0.00 0.00 58 1011.2
20260506111509 12 9 1.6 9.7 0.00 0.00 0.00 58 1011.1
20260506111009 13 325 1.6 8.0 0.00 0.00 0.00 58 1010.9
20260506110508 13 350 0.0 6.4 0.00 0.00 0.00 58 1010.8
20260506110009 13 327 1.6 9.7 0.00 0.00 0.00 58 1010.9
20260506105509 13 344 1.6 9.7 0.00 0.00 0.00 57 1010.8
20260506105005 13 345 1.6 9.7 0.00 0.00 0.00 57 1010.8
20260506104006 13 333 3.2 9.7 0.00 0.00 0.00 56 1010.7
20260506103505 13 327 4.8 8.0 0.00 0.00 0.00 56 1010.5
20260506103006 13 328 1.6 8.0 0.00 0.00 0.00 56 1010.4
20260506102501 13 338 1.6 12.9 0.00 0.00 0.00 56 1010.4
20260506102101 13 339 3.2 12.9 0.00 0.00 0.00 56 1010.1
20260506101559 13 335 3.2 8.0 0.00 0.00 0.00 55 1010.2
20260506101057 13 337 0.0 8.0 0.00 0.00 0.00 56 1010.1
20260506100557 13 340 1.6 6.4 0.00 0.00 0.00 56 1010.1
20260506100056 13 23 1.6 6.4 0.00 0.00 0.00 56 1009.9
20260506095555 13 340 0.0 4.8 0.00 0.00 0.00 55 1009.9
20260506095054 13 338 1.6 8.0 0.00 0.00 0.00 55 1009.9
20260506094052 14 11 1.6 8.0 0.00 0.00 0.00 56 1009.7
20260506093551 14 4 1.6 8.0 0.00 0.00 0.00 56 1009.8
20260506093107 14 345 0.0 8.0 0.00 0.00 0.00 56 1009.7
20260506092551 14 12 1.6 8.0 0.00 0.00 0.00 56 1009.6
20260506092048 14 343 1.6 9.7 0.00 0.00 0.00 56 1009.6
20260506091548 14 336 3.2 9.7 0.00 0.00 0.00 56 1009.6
20260506091047 14 352 1.6 8.0 0.00 0.00 0.00 56 1009.4
20260506090545 14 359 1.6 9.7 0.00 0.00 0.00 56 1009.4
20260506090049 14 356 1.6 8.0 0.00 0.00 0.00 56 1009.4
20260506085543 14 352 1.6 8.0 0.00 0.00 0.00 56 1009.3
20260506085043 15 9 1.6 4.8 0.00 0.00 0.00 56 1009.3
20260506084042 15 326 0.0 3.2 0.00 0.00 0.00 56 1009.2
20260506083540 15 356 0.0 4.8 0.00 0.00 0.00 56 1009.2
20260506083041 14 342 0.0 4.8 0.00 0.00 0.00 56 1009.3
20260506082537 15 341 0.0 4.8 0.00 0.00 0.00 56 1009.2
20260506082036 15 347 0.0 4.8 0.00 0.00 0.00 56 1009.2
20260506081536 15 334 0.0 4.8 0.00 0.00 0.00 56 1009.1
20260506081035 15 7 0.0 4.8 0.00 0.00 0.00 56 1008.8
20260506080534 15 4 0.0 3.2 0.00 0.00 0.00 57 1008.8
20260506073032 15 19 0.0 4.8 0.00 0.00 0.00 57 1008.9
20260506072531 15 360 0.0 6.4 0.00 0.00 0.00 57 1009.0
20260506072029 15 356 0.0 6.4 0.00 0.00 0.00 57 1009.0
20260506071529 15 347 0.0 8.0 0.00 0.00 0.00 57 1009.1
20260506071027 15 343 1.6 8.0 0.00 0.00 0.00 57 1009.1
20260506070530 15 289 0.0 8.0 0.00 0.00 0.00 57 1008.9
20260506062020 15 3 3.2 12.9 0.00 0.00 0.00 58 1008.9
20260506061519 15 345 3.2 12.9 0.00 0.00 0.00 57 1009.0
20260506061017 15 338 4.8 11.3 0.00 0.00 0.00 57 1008.8
20260506060516 15 328 3.2 8.0 0.00 0.00 0.00 58 1008.8
20260506051007 16 333 4.8 11.3 0.00 0.00 0.00 58 1008.8
20260506050503 16 4 1.6 9.7 0.00 0.00 0.00 58 1008.8
20260506045100 17 333 1.6 9.7 0.00 0.00 0.00 58 1008.7
20260506044003 17 360 3.2 12.9 0.00 0.00 0.00 58 1008.6
20260506043503 17 333 3.2 12.9 0.00 0.00 0.00 58 1008.6
20260506043059 17 331 6.4 11.3 0.00 0.00 0.00 57 1008.5
20260506042558 17 333 3.2 9.7 0.00 0.00 0.00 57 1008.5
20260506042057 17 354 3.2 11.3 0.00 0.00 0.00 57 1008.4
20260506041607 17 335 1.6 11.3 0.00 0.00 0.00 58 1008.4
20260506041056 17 326 1.6 8.0 0.00 0.00 0.00 58 1008.2
20260506040551 17 335 1.6 8.0 0.00 0.00 0.00 57 1008.0
20260506040054 18 15 1.6 8.0 0.00 0.00 0.00 57 1008.0
20260506035549 18 332 1.6 8.0 0.00 0.00 0.00 58 1008.0
20260506035048 18 359 4.8 11.3 0.00 0.00 0.00 58 1008.0
20260506034040 18 328 3.2 11.3 0.00 0.00 0.00 57 1007.8
20260506033538 18 330 3.2 12.9 0.00 0.00 0.00 57 1007.8
20260506033037 19 335 3.2 12.9 0.00 0.00 0.00 57 1007.7
20260506032537 19 324 3.2 12.9 0.00 0.00 0.00 57 1007.8
20260506032033 20 335 3.2 12.9 0.00 0.00 0.00 57 1007.6
20260506031533 20 344 3.2 11.3 0.00 0.00 0.00 57 1007.5
20260506031032 20 354 3.2 8.0 0.00 0.00 0.00 57 1007.3
20260506030531 20 329 0.0 12.9 0.00 0.00 0.00 57 1007.2
20260506030029 20 343 3.2 12.9 0.00 0.00 0.00 57 1007.3
20260506025529 20 342 4.8 11.3 0.00 0.00 0.00 56 1007.2
20260506025024 21 350 3.2 9.7 0.00 0.00 0.00 56 1007.1
20260506024024 21 333 1.6 8.0 0.00 0.00 0.00 56 1006.8
20260506023523 21 360 3.2 14.5 0.00 0.00 0.00 56 1006.5
20260506023020 21 335 6.4 14.5 0.00 0.00 0.00 55 1006.3
20260506022518 21 347 3.2 9.7 0.00 0.00 0.00 55 1006.1
20260506022017 21 312 3.2 9.7 0.00 0.00 0.00 55 1005.9
20260506021515 22 342 3.2 9.7 0.00 0.00 0.00 55 1005.9
20260506021013 22 330 3.2 9.7 0.00 0.00 0.00 55 1005.7
20260506020512 22 341 0.0 6.4 0.00 0.00 0.00 55 1005.5
20260506020022 22 347 0.0 8.0 0.00 0.00 0.00 54 1005.1
20260506015510 22 344 3.2 9.7 0.00 0.00 0.00 54 1005.4
20260506015013 22 2 1.6 4.8 0.00 0.00 0.00 53 1005.4
20260506014009 22 181 1.6 4.8 0.00 0.00 0.00 53 1005.2
20260506013511 23 344 0.0 4.8 0.00 0.00 0.00 52 1005.1
20260506013009 23 335 0.0 4.8 0.00 0.00 0.00 52 1005.2
20260506012510 23 4 0.0 4.8 0.00 0.00 0.00 52 1005.1
20260506012009 23 355 0.0 4.8 0.00 0.00 0.00 51 1005.3
20260506011506 23 352 0.0 4.8 0.00 0.00 0.00 52 1005.2
20260506011007 23 6 0.0 8.0 0.00 0.00 0.00 52 1004.9
20260506010505 23 345 0.0 8.0 0.00 0.00 0.00 52 1004.9
20260506010005 23 327 0.0 4.8 0.00 0.00 0.00 51 1004.7
20260506005507 23 319 0.0 9.7 0.00 0.00 0.00 51 1004.2
20260506005003 24 360 1.6 9.7 0.00 0.00 0.00 51 1004.2
20260506004005 24 7 3.2 9.7 0.00 0.00 0.00 51 1004.3
20260506003504 24 358 4.8 12.9 0.00 0.00 0.00 50 1004.3
20260506003004 25 10 4.8 12.9 0.00 0.00 0.00 50 1004.3
20260506002507 25 330 1.6 8.0 0.00 0.00 0.00 50 1004.2
20260506002003 25 1 3.2 8.0 0.00 0.00 0.00 49 1004.4
20260506001503 25 338 1.6 11.3 0.00 0.00 0.00 49 1004.4
20260506001002 25 353 3.2 11.3 0.00 0.00 0.00 48 1004.4
20260506000503 26 20 1.6 12.9 0.00 0.00 0.00 48 1004.1
20260506000125 26 355 4.8 12.9 0.00 0.00 0.00 48 1003.7
20260505235501 26 352 3.2 6.4 0.00 0.00 0.00 48 1003.6
20260505235100 26 4 3.2 9.7 0.00 0.00 0.00 47 1003.5
20260505234057 27 347 3.2 16.1 0.00 0.00 0.00 46 1003.5
20260505233556 27 339 4.8 17.7 0.00 0.00 0.00 45 1003.6
20260505233056 28 18 6.4 17.7 0.00 0.00 0.00 44 1003.6
20260505232556 28 5 3.2 12.9 0.00 0.00 0.00 42 1003.4
20260505232054 28 5 4.8 12.9 0.00 0.00 0.00 40 1003.3
20260505231558 29 13 1.6 12.9 0.00 0.00 0.00 40 1003.2
20260505231053 29 320 1.6 12.9 0.00 0.00 0.00 38 1003.1
20260505230554 30 338 6.4 11.3 0.00 0.00 0.00 37 1002.9
20260505230052 30 300 1.6 8.0 0.00 0.00 0.00 36 1002.8
20260505225551 31 341 1.6 8.0 0.00 0.00 0.00 41 1002.6
20260505225050 31 144 0.0 8.0 0.00 0.00 0.00 42 1002.6
20260505224052 31 155 0.0 8.0 0.00 0.00 0.00 42 1002.6
20260505223548 31 153 1.6 6.4 0.00 0.00 0.00 42 1002.5
20260505223048 31 162 0.0 8.0 0.00 0.00 0.00 41 1002.4
20260505222548 31 204 1.6 8.0 0.00 0.00 0.00 39 1002.3
20260505222047 31 158 0.0 3.2 0.00 0.00 0.00 41 1002.3
20260505221555 31 143 0.0 12.9 0.00 0.00 0.00 40 1002.2
20260505221046 31 172 1.6 12.9 0.00 0.00 0.00 41 1002.3
20260505220545 31 100 0.0 4.8 0.00 0.00 0.00 41 1002.3
20260505215543 31 86 0.0 4.8 0.00 0.00 0.00 42 1002.5
20260505215042 31 196 0.0 4.8 0.00 0.00 0.00 41 1002.5
20260505214042 31 203 0.0 6.4 0.00 0.00 0.00 40 1002.5
20260505213542 32 154 0.0 6.4 0.00 0.00 0.00 39 1002.5
20260505213040 32 242 0.0 8.0 0.00 0.00 0.00 43 1002.6
20260505212540 32 110 0.0 9.7 0.00 0.00 0.00 41 1002.6
20260505212039 31 131 3.2 9.7 0.00 0.00 0.00 43 1002.7
20260505211607 32 124 0.0 4.8 0.00 0.00 0.00 41 1002.7
20260505211038 31 26 0.0 4.8 0.00 0.00 0.00 43 1002.8
20260505210536 32 144 1.6 6.4 0.00 0.00 0.00 42 1002.8
20260505210042 32 136 1.6 9.7 0.00 0.00 0.00 42 1002.7
20260505205535 32 100 0.0 9.7 0.00 0.00 0.00 44 1002.9
20260505205036 32 185 1.6 9.7 0.00 0.00 0.00 43 1003.0
20260505204035 31 215 1.6 9.7 0.00 0.00 0.00 43 1003.1
20260505203531 31 127 3.2 9.7 0.00 0.00 0.00 44 1003.3
20260505203032 31 141 1.6 12.9 0.00 0.00 0.00 44 1003.4
20260505202530 31 145 3.2 12.9 0.00 0.00 0.00 44 1003.2
20260505202033 31 165 1.6 9.7 0.00 0.00 0.00 45 1003.4
20260505201530 31 140 1.6 9.7 0.00 0.00 0.00 44 1003.4
20260505201027 31 156 0.0 11.3 0.00 0.00 0.00 46 1003.5
20260505200526 31 181 3.2 11.3 0.00 0.00 0.00 45 1003.4
20260505200025 31 176 3.2 8.0 0.00 0.00 0.00 44 1003.5
20260505195523 31 141 1.6 11.3 0.00 0.00 0.00 45 1003.5
20260505195022 31 30 3.2 8.0 0.00 0.00 0.00 46 1003.5
20260505194032 30 247 1.6 9.7 0.00 0.00 0.00 46 1003.6
20260505193522 31 288 1.6 9.7 0.00 0.00 0.00 46 1003.6
20260505193021 30 146 3.2 6.4 0.00 0.00 0.00 45 1003.6
20260505192520 30 202 1.6 8.0 0.00 0.00 0.00 46 1003.6
20260505192019 30 111 1.6 8.0 0.00 0.00 0.00 46 1003.7
20260505191519 30 341 1.6 8.0 0.00 0.00 0.00 47 1003.6
20260505191016 30 216 3.2 11.3 0.00 0.00 0.00 48 1003.6
20260505190513 29 261 3.2 11.3 0.00 0.00 0.00 48 1003.6
20260505190013 29 101 1.6 6.4 0.00 0.00 0.00 49 1003.7
20260505185513 29 168 1.6 6.4 0.00 0.00 0.00 49 1003.7
20260505185009 28 142 3.2 6.4 0.00 0.00 0.00 50 1003.8
20260505184007 28 153 3.2 9.7 0.00 0.00 0.00 51 1003.8
20260505183505 28 143 1.6 12.9 0.00 0.00 0.00 50 1003.9
20260505183003 28 112 3.2 12.9 0.00 0.00 0.00 50 1003.8
20260505182503 28 97 4.8 12.9 0.00 0.00 0.00 50 1003.8
20260505182001 28 104 3.2 9.7 0.00 0.00 0.00 51 1003.8
20260505181641 28 86 1.6 12.9 0.00 0.00 0.00 51 1003.9
20260505181100 28 103 4.8 12.9 0.00 0.00 0.00 50 1003.9
20260505180559 28 213 3.2 9.7 0.00 0.00 0.00 50 1003.8
20260505180502 28 214 4.8 9.7 0.00 0.00 0.00 50 1003.8
20260505180106 28 202 3.2 11.3 0.00 0.00 0.00 50 1003.9
20260505175558 28 151 4.8 11.3 0.00 0.00 0.00 50 1003.8
20260505175056 28 153 1.6 8.0 0.00 0.00 0.00 51 1003.7
20260505174656 27 164 4.8 17.7 0.00 0.00 0.00 51 1003.9
20260505174005 27 177 3.2 17.7 0.00 0.00 0.00 51 1003.9
20260505173601 27 142 3.2 17.7 0.00 0.00 0.00 52 1004.0
20260505173058 27 149 4.8 11.3 0.00 0.00 0.00 52 1004.0
20260505172557 27 84 3.2 11.3 0.00 0.00 0.00 51 1004.0
20260505172055 27 165 3.2 9.7 0.00 0.00 0.00 52 1004.1
20260505171601 27 95 3.2 11.3 0.00 0.00 0.00 52 1004.1
20260505171053 27 150 4.8 11.3 0.00 0.00 0.00 52 1004.1
20260505170652 27 136 1.6 9.7 0.00 0.00 0.00 52 1004.2
20260505170052 26 202 3.2 12.9 0.00 0.00 0.00 52 1004.2
20260505165550 27 113 4.8 12.9 0.00 0.00 0.00 52 1004.2
20260505165049 26 245 1.6 9.7 0.00 0.00 0.00 53 1004.1
20260505164648 26 178 1.6 11.3 0.00 0.00 0.00 53 1004.2
20260505164042 26 183 1.6 11.3 0.00 0.00 0.00 53 1004.1
20260505163544 26 127 3.2 17.7 0.00 0.00 0.00 53 1004.1
20260505163040 26 224 4.8 17.7 0.00 0.00 0.00 52 1004.1
20260505162538 26 120 6.4 17.7 0.00 0.00 0.00 53 1003.9
20260505162039 26 172 3.2 17.7 0.00 0.00 0.00 53 1004.0
20260505161537 26 144 4.8 17.7 0.00 0.00 0.00 52 1004.0
20260505161037 26 153 4.8 17.7 0.00 0.00 0.00 52 1003.9
20260505160535 26 173 1.6 9.7 0.00 0.00 0.00 54 1003.8
20260505153038 25 226 3.2 19.3 0.00 0.00 0.00 54 1003.7
20260505152527 25 323 4.8 19.3 0.00 0.00 0.00 54 1003.7
20260505152025 25 145 6.4 20.9 0.00 0.00 0.00 54 1003.8
20260505151524 25 72 6.4 20.9 0.00 0.00 0.00 54 1003.9
20260505151022 25 140 4.8 9.7 0.00 0.00 0.00 54 1004.0
20260505150522 24 270 3.2 12.9 0.00 0.00 0.00 55 1003.9
20260505140510 22 153 1.6 12.9 0.00 0.00 0.00 58 1004.1